Total_Precipitation_Accumulation
0.35 0.18 0.15 0.15 0.15 0.14 0.15 0.20 0.37 0.60 0.85 1.07 1.38 1.41 1.29 1.08 0.98 1.00 0.98 0.94 0.86 0.77 0.67 0.56 0.48 0.45 0.43 0.39 0.33 0.28 0.25 0.22 0.21 0.19 0.19 0.19 0.19 0.19 0.18 0.17 0.15 0.14 0.13 0.12
0.30 0.23 0.22 0.26 0.24 0.25 0.28 0.31 0.44 0.70 1.04 1.24 1.23 1.12 1.07 1.00 0.95 1.04 1.14 1.19 1.15 0.99 0.80 0.67 0.60 0.54 0.49 0.44 0.36 0.28 0.26 0.27 0.26 0.25 0.24 0.24 0.23 0.21 0.20 0.17 0.15 0.12 0.09 0.07
0.40 0.30 0.34 0.54 0.43 0.41 0.42 0.42 0.51 0.71 0.83 0.87 0.93 0.95 0.99 1.00 1.04 1.18 1.28 1.25 1.12 1.00 0.86 0.76 0.71 0.63 0.56 0.51 0.42 0.36 0.35 0.32 0.29 0.27 0.27 0.26 0.22 0.19 0.16 0.13 0.11 0.10 0.07 0.06
0.33 0.36 0.64 0.70 0.41 0.36 0.34 0.33 0.38 0.46 0.51 0.62 0.74 0.87 0.98 1.07 1.19 1.32 1.40 1.39 1.27 1.08 0.95 0.82 0.71 0.61 0.53 0.47 0.43 0.40 0.39 0.36 0.31 0.27 0.25 0.22 0.18 0.16 0.13 0.11 0.10 0.10 0.08 0.07
0.36 0.50 0.62 0.58 0.34 0.31 0.38 0.39 0.34 0.35 0.38 0.46 0.56 0.70 1.01 1.16 1.22 1.30 1.34 1.28 1.17 1.01 0.91 0.80 0.68 0.57 0.48 0.44 0.41 0.39 0.37 0.30 0.24 0.18 0.16 0.14 0.13 0.12 0.12 0.12 0.11 0.09 0.08 0.09
0.42 0.64 0.75 0.63 0.28 0.17 0.31 0.55 0.42 0.31 0.30 0.40 0.56 0.72 0.81 0.87 0.96 1.00 0.95 0.88 0.83 0.79 0.74 0.66 0.57 0.47 0.44 0.42 0.36 0.30 0.23 0.18 0.13 0.09 0.09 0.09 0.10 0.11 0.11 0.12 0.11 0.08 0.08 0.10
0.48 0.66 0.71 0.31 0.14 0.20 0.54 0.75 0.60 0.46 0.44 0.50 0.67 0.69 0.54 0.51 0.61 0.68 0.69 0.71 0.68 0.64 0.62 0.55 0.44 0.37 0.35 0.32 0.27 0.18 0.13 0.10 0.07 0.05 0.06 0.07 0.10 0.13 0.14 0.14 0.14 0.12 0.13 0.13
0.51 0.69 0.76 0.26 0.17 0.38 0.49 0.43 0.48 0.48 0.52 0.54 0.51 0.43 0.39 0.38 0.46 0.57 0.67 0.70 0.64 0.58 0.51 0.41 0.32 0.29 0.30 0.26 0.16 0.11 0.09 0.08 0.07 0.05 0.03 0.05 0.12 0.16 0.15 0.16 0.17 0.17 0.17 0.15
0.55 0.61 0.42 0.19 0.19 0.21 0.25 0.30 0.32 0.33 0.36 0.42 0.47 0.44 0.40 0.44 0.51 0.58 0.67 0.69 0.60 0.48 0.39 0.30 0.24 0.24 0.25 0.20 0.12 0.10 0.12 0.12 0.10 0.07 0.06 0.07 0.12 0.16 0.16 0.16 0.15 0.13 0.13 0.14
0.44 0.43 0.30 0.20 0.16 0.15 0.18 0.25 0.26 0.29 0.32 0.42 0.59 0.61 0.55 0.52 0.59 0.60 0.59 0.51 0.42 0.34 0.27 0.21 0.16 0.14 0.14 0.10 0.08 0.10 0.13 0.12 0.10 0.11 0.12 0.12 0.13 0.10 0.11 0.12 0.10 0.09 0.11 0.13
0.67 0.59 0.43 0.27 0.19 0.20 0.21 0.26 0.34 0.42 0.44 0.47 0.52 0.57 0.57 0.55 0.50 0.44 0.38 0.31 0.27 0.24 0.20 0.14 0.10 0.08 0.06 0.05 0.06 0.11 0.13 0.12 0.10 0.10 0.12 0.18 0.15 0.07 0.05 0.06 0.02 0.05 0.08 0.11
0.99 0.73 0.59 0.44 0.35 0.38 0.39 0.39 0.41 0.40 0.39 0.40 0.36 0.36 0.40 0.41 0.36 0.30 0.26 0.23 0.20 0.17 0.13 0.08 0.06 0.05 0.04 0.03 0.04 0.11 0.15 0.12 0.07 0.06 0.09 0.12 0.15 0.14 0.05 0.01 0.00 0.01 0.03 0.05
0.77 0.59 0.53 0.52 0.49 0.49 0.44 0.34 0.30 0.27 0.24 0.27 0.26 0.23 0.24 0.23 0.20 0.18 0.17 0.15 0.14 0.10 0.06 0.05 0.04 0.03 0.02 0.01 0.02 0.05 0.10 0.09 0.04 0.03 0.06 0.08 0.11 0.19 0.20 0.11 0.03 0.02 0.02 0.03
0.50 0.47 0.49 0.39 0.29 0.23 0.16 0.13 0.15 0.18 0.17 0.15 0.14 0.15 0.13 0.11 0.10 0.10 0.10 0.09 0.07 0.05 0.03 0.03 0.03 0.03 0.01 0.01 0.01 0.03 0.04 0.03 0.03 0.04 0.03 0.04 0.06 0.09 0.14 0.21 0.21 0.16 0.07 0.04
0.29 0.24 0.19 0.11 0.08 0.08 0.07 0.07 0.10 0.13 0.13 0.12 0.09 0.08 0.07 0.07 0.07 0.07 0.06 0.05 0.05 0.04 0.03 0.02 0.02 0.01 0.00 0.00 0.01 0.02 0.03 0.04 0.03 0.02 0.02 0.02 0.03 0.05 0.08 0.12 0.17 0.19 0.17 0.10
0.11 0.07 0.06 0.05 0.05 0.06 0.07 0.07 0.08 0.08 0.09 0.09 0.08 0.06 0.06 0.05 0.04 0.05 0.04 0.04 0.04 0.05 0.03 0.02 0.02 0.01 0.00 0.01 0.01 0.02 0.02 0.01 0.01 0.01 0.01 0.01 0.02 0.03 0.06 0.11 0.12 0.14 0.16 0.13
0.06 0.04 0.03 0.04 0.04 0.05 0.05 0.05 0.04 0.04 0.06 0.07 0.05 0.03 0.03 0.02 0.03 0.03 0.03 0.02 0.02 0.03 0.02 0.01 0.01 0.00 0.00 0.00 0.01 0.02 0.02 0.01 0.00 0.01 0.00 0.00 0.01 0.01 0.03 0.07 0.10 0.12 0.10 0.09
0.03 0.02 0.02 0.02 0.02 0.02 0.03 0.02 0.02 0.02 0.03 0.02 0.01 0.01 0.01 0.02 0.02 0.02 0.01 0.01 0.01 0.01 0.01 0.01 0.01 0.00 0.00 0.00 0.00 0.00 0.01 0.01 0.00 0.00 0.00 0.00 0.00 0.01 0.02 0.03 0.05 0.09 0.10 0.10
0.01 0.01 0.01 0.01 0.01 0.01 0.01 0.01 0.01 0.01 0.00 0.01 0.01 0.01 0.01 0.01 0.01 0.01 0.01 0.01 0.01 0.01 0.01 0.01 0.00 0.00 0.00 0.00 0.00 0.00 0.00 0.01 0.01 0.00 0.00 0.00 0.01 0.01 0.02 0.02 0.03 0.05 0.07 0.11
0.01 0.02 0.01 0.01 0.00 0.00 0.00 0.00 0.00 0.00 0.00 0.00 0.00 0.01 0.01 0.01 0.00 0.00 0.00 0.01 0.01 0.01 0.01 0.00 0.00 0.00 0.00 0.00 0.00 0.00 0.00 0.00 0.00 0.00 0.00 0.00 0.01 0.01 0.01 0.01 0.01 0.03 0.05 0.08
0.02 0.02 0.02 0.00 0.00 0.00 0.00 0.00 0.01 0.01 0.00 0.00 0.00 0.00 0.00 0.00 0.00 0.00 0.00 0.00 0.00 0.00 0.00 0.00 0.00 0.00 0.00 0.00 0.00 0.00 0.00 0.00 0.00 0.00 0.00 0.00 0.00 0.00 0.00 0.01 0.01 0.02 0.03 0.05
0.03 0.04 0.02 0.01 0.01 0.01 0.01 0.01 0.00 0.00 0.00 0.00 0.00 0.00 0.00 0.00 0.00 0.00 0.00 0.00 0.00 0.00 0.00 0.00 0.00 0.00 0.00 0.00 0.00 0.00 0.00 0.00 0.00 0.00 0.00 0.00 0.00 0.00 0.01 0.01 0.01 0.01 0.02 0.03
0.06 0.04 0.03 0.02 0.02 0.01 0.01 0.01 0.00 0.00 0.00 0.00 0.00 0.00 0.00 0.00 0.00 0.00 0.00 0.00 0.00 0.00 0.00 0.00 0.00 0.00 0.00 0.00 0.00 0.00 0.00 0.00 0.00 0.00 0.00 0.00 0.00 0.00 0.00 0.00 0.01 0.01 0.02 0.02
0.10 0.08 0.05 0.03 0.02 0.02 0.02 0.01 0.00 0.00 0.00 0.00 0.00 0.00 0.00 0.00 0.00 0.00 0.00 0.00 0.00 0.00 0.00 0.00 0.00 0.00 0.00 0.00 0.00 0.00 0.00 0.00 0.00 0.00 0.00 0.00 0.00 0.00 0.00 0.00 0.00 0.01 0.01 0.01
0.14 0.10 0.06 0.05 0.05 0.04 0.02 0.01 0.00 0.00 0.00 0.00 0.00 0.00 0.00 0.00 0.00 0.00 0.00 0.00 0.00 0.00 0.00 0.00 0.00 0.00 0.00 0.00 0.00 0.00 0.00 0.00 0.00 0.00 0.00 0.00 0.00 0.00 0.00 0.00 0.00 0.00 0.00 0.00
0.20 0.17 0.13 0.09 0.05 0.02 0.01 0.00 0.00 0.00 0.00 0.00 0.00 0.00 0.00 0.00 0.00 0.00 0.00 0.00 0.00 0.00 0.00 0.00 0.00 0.00 0.00 0.00 0.00 0.00 0.00 0.00 0.00 0.00 0.00 0.00 0.00 0.00 0.00 0.00 0.00 0.00 0.00 0.00
0.25 0.21 0.16 0.10 0.04 0.01 0.00 0.00 0.00 0.00 0.00 0.00 0.00 0.00 0.00 0.00 0.00 0.00 0.00 0.00 0.00 0.00 0.00 0.00 0.00 0.00 0.00 0.00 0.00 0.00 0.00 0.00 0.00 0.00 0.00 0.00 0.00 0.00 0.00 0.00 0.00 0.00 0.00 0.00